sat.trackr.live / text

‹ back to catalog

COSMOS 2482 (RODNIK-S 4)

NORAD 39057 · 2013-001A

PAYLOAD ACTIVE UNKNOWN

§ Identity

Operator
Country
CIS
Launch date
2013-01-15
Launch site
PLMSC
Launch vehicle
Mass (kg)
RCS (m²)
1.75

External: N2YO · Heavens-Above · Gunter

§ Orbital elements

Epoch: 2026-05-25T04:19:57.056736Z

Period
115.85 min
Inclination
82.4988°
Eccentricity
0.0028646
Mean motion
12.42995988 rev/d
Perigee alt
1,471.4 km
Apogee alt
1,516.5 km
Semi-major
7,872.1 km
B*
8.1263e-4
RAAN
234.6679°
Arg perigee
76.5767°
Mean anomaly
283.8503°
Rev number
60,585

§ Raw data

COSMOS 2482 (RODNIK-S 4)1 39057U 13001A   26145.18052149  .00000123  00000+0  81263-3 0  99952 39057  82.4988 234.6679 0028646  76.5767 283.8503 12.42995988605856

JSON: /api/v1/satellites/39057 · /tle

For live sub-satellite position, see the globe view (requires WebGL).

§ Visibility from observer

Set your observer location to see the next 7 days of passes ≥ 10°. The values pass through the URL so the page stays shareable.

No JS? Fill the form by hand. The geolocation button needs JavaScript.